Weather in Tsetserleg

Mongolia     47°28′13″N   101°28′26″E
В апреле 2022 года жителям России запретили посещать сайт meteo.paraplan.net по решению Генеральной прокуратуры. Аудитория сайта уменьшилась в 10 раз. Владельцы сайта не видят смысла в поддержке погодного сервера в таких условиях. Сайт будет закрыт в октябре.
temp.,
°C
wind,
m/s
gust,
m/s
humid.,
%
clouds,
%
prec.,
mm/h
press.,
hPa
HPBL,
m
26 september, mon
mon2623:00+7sw224810 0.0 101312
02:00+5sw22535 0.0 101411
05:00+5sw225082 0.0 101312
08:00+6sw224081 0.0 101324
11:00+14wsw23256 0.0 1009382
14:00+19nw510166 0.0 10062718
17:00+20w881811 0.0 10042249
20:00+14wnw2225100 0.0 100712
27 september, tue
tue2723:00+9wsw22335 0.0 101011
02:00+7sw33330 0.0 101118
05:00+6wsw33340 0.0 101020
08:00+7sw32350 0.0 101026
11:00+17wsw35215 0.0 1006673
14:00+20wnw5816100 0.0 10033145
17:00+19w571751 0.0 10022750
20:00+12nne112885 0.0 100411
28 september, wed
wed2823:00+9sw22345 0.0 100611
02:00+8sw2234100 0.0 100511
05:00+9sw3229100 0.0 100232
08:00+9nw512361 0.0 1004466
11:00+13wnw1015295 0.0 10042177
14:00+15wnw1114215 0.0 10042260
17:00+15nw8112095 0.0 10032610
20:00+8nne1134100 0.0 100810
29 september, thu
thu2923:00+6ssw2240100 0.0 100910
02:00+5sse1141100 0.0 100810
05:00+5ne2243100 0.0 100711
08:00+3e11505 0.0 100810
11:00+10nw46345 0.0 1007860
14:00+13nw6828100 0.0 10042156
17:00+14w2722100 0.0 10032215
20:00+8nne123167 0.0 100610
30 september, fri
fri3023:00+5wsw22299 0.0 100812
02:00+5sw2229100 0.0 100911
05:00+3ssw1135100 0.0 100810
08:00+4s1141100 0.0 100810
11:00+12w4938100 0.2 10051700
14:00+12wsw7938100 0.2 10041200
17:00+14w58315 0.0 10011923
20:00+7ssw335817 0.0 100419